Track STARLINK-4021 now! 10-day predictions STARLINK-4021 is classified as:
1 53149U 22083T 22221.16667824 -.00025139 00000-0 -17517-3 0 9992 2 53149 53.2176 295.0912 0002207 19.0296 222.0737 15.73204769 4207